Tracking 23752 objects as of 23-Oct-2021
HD Live streaming from Space Station
objects crossing your sky now

DELTA 1 DEB

Track DELTA 1 DEB now!
10-day predictions


NORAD ID: 10184
Int'l Code: 1977-065N
Perigee: 520.3 km
Apogee: 1,692.4 km
Inclination: 29.1 °
Period: 107.2 minutes
Semi major axis: 7477 km
RCS: 4.0516 m2 (large)
Launch date: July 14, 1977
Source: United States (US)
Launch site: AIR FORCE EASTERN TEST RANGE (AFETR)

Note: This is SATELLITE DEBRIS
aabbcc
Your satellite tracking list
Your tracking list is empty




NASA's NSSDC Master Catalog

Two Line Element Set (TLE):
1 10184U 77065N   21295.83434638  .00000750  00000-0  16547-3 0  9995
2 10184  29.0787 278.4190 0783754 344.6639  13.1380 13.42707533138316
Source of the keplerian elements: AFSPC